CAPE
868 835 759 805 323 614 1136 917 424 25 0 0 0 0 0 0 0 0 0 0 0 0 0 0 0 0 0 0 0 0 0 0 0 0 0 0 0 1 1 0 0 2 16
1220 1200 1150 942 754 890 631 296 43 1 0 0 0 0 0 0 0 0 0 0 0 0 0 0 0 0 0 0 0 0 0 0 0 0 0 0 0 0 0 0 0 0 2
1042 1077 993 972 533 322 164 26 1 0 0 0 0 0 0 0 0 0 0 0 0 0 0 0 0 0 0 0 0 0 0 0 0 0 0 0 0 0 0 0 0 0 0
1147 1089 786 484 328 94 49 0 0 0 0 0 0 0 0 0 0 0 0 0 0 0 0 0 0 0 0 0 0 0 0 0 0 0 0 0 0 0 0 0 0 0 0
955 514 493 266 191 37 2 2 1 0 0 0 0 0 0 0 0 0 0 0 0 0 0 0 0 0 0 0 0 0 1 0 0 0 0 0 0 0 0 0 0 0 0
606 505 259 169 18 3 3 3 1 0 0 0 0 0 0 0 0 0 0 0 0 0 0 0 0 0 0 0 0 0 0 0 0 0 0 0 0 0 0 0 0 1 0
704 387 130 28 28 7 4 3 1 0 0 0 0 0 0 0 0 0 0 0 0 0 0 0 0 0 0 0 0 0 0 0 0 0 0 0 0 0 0 0 2 0 1
967 350 124 33 3 4 3 3 2 0 0 0 0 2 0 0 0 0 0 0 0 0 0 0 0 0 0 0 0 0 0 0 0 0 0 0 0 0 0 0 0 0 0
810 208 103 4 3 3 5 5 2 4 0 0 3 1 0 0 0 0 0 0 0 0 0 0 0 0 0 0 0 0 0 0 0 0 0 0 0 0 0 0 0 0 0
526 73 30 3 5 4 4 4 3 2 0 2 3 3 0 0 0 0 0 0 0 0 0 0 0 0 0 0 0 0 0 0 0 0 0 0 0 0 0 0 0 0 0
205 6 2 3 4 3 4 3 3 2 7 3 4 4 0 0 0 0 0 0 0 0 0 0 0 0 0 0 0 0 0 0 0 0 0 0 0 0 0 0 0 0 0
34 2 3 3 3 3 5 2 0 2 6 0 12 6 2 0 0 0 0 0 0 0 0 0 0 0 0 0 0 0 0 0 0 0 0 0 0 0 0 0 0 1 0
2 3 2 3 3 3 3 4 4 0 1 4 13 15 4 0 0 0 0 0 0 0 0 0 0 0 0 0 0 0 0 0 0 0 0 0 0 0 0 0 0 5 0
3 3 3 5 5 4 3 1 2 0 0 0 2 5 7 0 0 0 0 0 0 0 0 0 0 0 0 0 0 0 0 0 0 0 0 0 0 0 0 0 0 0 0
3 4 5 6 5 2 2 2 0 0 0 0 1 0 3 1 0 0 0 0 0 0 0 0 0 0 0 0 0 0 0 0 0 0 0 0 0 0 0 0 0 0 0
4 4 5 4 3 2 0 0 0 0 0 0 0 2 0 0 0 0 0 0 0 0 0 0 0 0 0 0 0 0 0 0 0 0 0 0 0 0 0 0 0 0 0
3 4 4 4 3 4 2 0 0 0 0 0 0 0 0 0 0 0 0 0 0 0 0 0 0 0 0 0 0 0 0 0 0 0 0 0 0 0 0 0 0 0 0
3 2 3 2 2 3 3 0 0 0 0 0 0 0 0 0 0 0 0 0 0 0 0 0 0 0 0 0 0 0 0 0 0 0 0 0 0 0 0 0 0 0 0
3 3 2 3 3 1 0 0 0 0 0 0 0 0 0 0 0 0 0 0 0 0 0 0 0 0 0 0 0 0 0 0 0 0 0 0 0 0 0 0 0 0 0
2 1 2 2 1 2 0 0 0 0 0 0 0 0 0 0 0 0 0 0 0 0 0 0 0 0 0 0 0 0 0 0 0 0 0 0 0 0 0 0 0 0 0
3 1 0 2 1 0 0 0 0 0 0 0 0 0 0 0 0 0 0 0 0 0 0 0 0 0 0 0 0 0 0 0 0 0 0 0 0 0 0 0 0 0 0
1 1 1 1 1 0 0 0 0 0 0 0 0 0 0 0 0 0 0 0 0 0 0 0 0 0 0 0 0 0 0 0 0 0 0 0 0 0 0 0 0 0 0
1 1 1 1 0 0 0 0 0 0 0 0 0 0 0 0 0 0 0 0 0 0 0 0 0 0 0 0 0 0 0 0 0 0 0 0 0 0 0 0 0 0 0
1 1 1 0 0 0 0 0 0 0 0 0 0 0 0 0 0 0 0 0 0 0 0 0 0 0 0 0 0 0 0 0 0 0 0 0 0 0 0 0 0 0 0
2 2 0 0 0 0 0 0 0 0 0 0 0 0 0 0 0 0 0 0 0 0 0 0 0 0 0 0 0 0 0 0 0 0 0 0 0 0 0 0 0 0 0
1 1 0 0 0 0 0 0 0 0 0 0 0 0 0 0 0 0 0 0 0 0 0 0 0 0 0 0 0 0 0 0 0 0 0 0 0 0 0 0 0 0 0
CIN
-3 -2 -1 -11 -45 -35 -70 -12 -65 -198 -0 -0 -0 -0 -0 -0 -0 -0 -0 -0 -0 -0 -0 -0 -0 -0 -0 -0 -0 -0 -0 -0 -0 -0 -0 -0 -0 -0 -1 -0 -0 -1 -5
-2 -2 -12 -5 -6 -47 -143 -154 -291 -0 -0 -0 -0 -0 -0 -0 -0 -0 -0 -0 -0 -0 -0 -0 -0 -0 -0 -0 -0 -0 -0 -0 -0 -0 -0 -0 -0 -0 -0 -0 -0 -0 -2
-2 -1 -7 -6 -72 -167 -274 -435 -0 -0 -0 -0 -0 -0 -0 -0 -0 -0 -0 -0 -0 -0 -0 -0 -0 -0 -0 -0 -0 -0 -0 -0 -0 -0 -0 -0 -0 -0 -0 -0 -0 -0 -0
-1 -2 -25 -70 -144 -277 -332 -0 -0 -0 -0 -0 -0 -0 -0 -0 -0 -0 -0 -0 -0 -0 -0 -0 -0 -0 -0 -0 -0 -0 -0 -0 -0 -0 -0 -0 -0 -0 -0 -0 -0 -0 -0
-0 -39 -97 -168 -198 -325 -0 -0 -0 -0 -0 -0 -0 -0 -0 -0 -0 -0 -0 -0 -0 -0 -0 -0 -0 -0 -0 -0 -0 -0 -2 -0 -0 -0 -0 -0 -0 -0 -0 -0 -0 -0 -0
-42 -94 -250 -242 -346 -0 -0 -0 -0 -0 -0 -0 -0 -0 -0 -0 -0 -0 -0 -0 -0 -0 -0 -0 -0 -0 -0 -0 -0 -0 -0 -0 -0 -0 -0 -0 -0 -0 -0 -0 -0 -1 -0
-52 -136 -242 -399 -404 -346 -0 -0 -0 -0 -0 -0 -0 -0 -0 -0 -0 -0 -0 -0 -0 -0 -0 -0 -0 -0 -0 -0 -0 -0 -0 -0 -0 -0 -0 -0 -0 -0 -0 -0 -1 -0 -1
-6 -147 -289 -425 -0 -0 -0 -0 -0 -0 -0 -0 -0 -1 -0 -0 -0 -0 -0 -0 -0 -0 -0 -0 -0 -0 -0 -0 -0 -0 -0 -0 -0 -0 -0 -0 -0 -0 -0 -0 -0 -0 -0
-5 -231 -325 -56 -0 -0 -0 -0 -0 -0 -0 -0 -1 -0 -0 -0 -0 -0 -0 -0 -0 -0 -0 -0 -0 -0 -0 -0 -0 -0 -0 -0 -0 -0 -0 -0 -0 -0 -0 -0 -0 -0 -0
-79 -388 -313 -0 -0 -0 -0 -0 -0 -0 -0 -2 -1 -1 -0 -0 -0 -0 -0 -0 -0 -0 -0 -0 -0 -0 -0 -0 -0 -0 -0 -0 -0 -0 -0 -0 -0 -0 -0 -0 -0 -0 -0
-209 -332 -0 -0 -0 -0 -0 -0 -0 -1 -1 -1 -1 -1 -0 -0 -0 -0 -0 -0 -0 -0 -0 -0 -0 -0 -0 -0 -0 -0 -0 -0 -0 -0 -0 -0 -0 -0 -0 -0 -0 -0 -0
-340 -0 -0 -0 -0 -0 -0 -0 -0 -0 -0 -0 -1 -1 -1 -0 -0 -0 -0 -0 -0 -0 -0 -0 -0 -0 -0 -0 -0 -0 -0 -0 -0 -0 -0 -0 -0 -0 -0 -0 -0 -0 -0
-0 -0 -0 -0 -0 -0 -0 -0 -0 -0 -0 -0 -0 -0 -1 -0 -0 -0 -0 -0 -0 -0 -0 -0 -0 -0 -0 -0 -0 -0 -0 -0 -0 -0 -0 -0 -0 -0 -0 -0 -0 -2 -0
-0 -0 -0 -0 -0 -0 -0 -0 -0 -0 -0 -0 -0 -1 -1 -0 -0 -0 -0 -0 -0 -0 -0 -0 -0 -0 -0 -0 -0 -0 -0 -0 -0 -0 -0 -0 -0 -0 -0 -0 -0 -0 -0
-0 -0 -0 -0 -0 -0 -0 -0 -0 -0 -0 -0 -2 -0 -1 -1 -0 -0 -0 -0 -0 -0 -0 -0 -0 -0 -0 -0 -0 -0 -0 -0 -0 -0 -0 -0 -0 -0 -0 -0 -0 -0 -0
-0 -0 -0 -0 -0 -0 -0 -0 -0 -0 -0 -0 -0 -1 -1 -0 -0 -0 -0 -0 -0 -0 -0 -0 -0 -0 -0 -0 -0 -0 -0 -0 -0 -0 -0 -0 -0 -0 -0 -0 -0 -0 -0
-0 -0 -0 -0 -0 -0 -0 -0 -0 -0 -0 -0 -0 -0 -0 -0 -0 -0 -0 -0 -0 -0 -0 -0 -0 -0 -0 -0 -0 -0 -0 -0 -0 -0 -0 -0 -0 -0 -0 -0 -0 -0 -0
-0 -0 -0 -0 -0 -0 -0 -0 -0 -0 -0 -0 -0 -0 -0 -0 -0 -0 -0 -0 -0 -0 -0 -0 -0 -0 -0 -0 -0 -0 -0 -0 -0 -0 -0 -0 -0 -0 -0 -0 -0 -0 -0
-0 -0 -0 -0 -0 -0 -0 -0 -0 -0 -0 -0 -0 -0 -0 -0 -0 -0 -0 -0 -0 -0 -0 -0 -0 -0 -0 -0 -0 -0 -0 -0 -0 -0 -0 -0 -0 -0 -0 -0 -0 -0 -0
-0 -0 -0 -0 -0 -0 -0 -0 -0 -0 -0 -0 -0 -0 -0 -0 -0 -0 -0 -0 -0 -0 -0 -0 -0 -0 -0 -0 -0 -0 -0 -0 -0 -0 -0 -0 -0 -0 -0 -0 -0 -0 -0
-0 -0 -0 -0 -0 -0 -0 -0 -0 -0 -0 -0 -0 -0 -0 -0 -0 -0 -0 -0 -0 -0 -0 -0 -0 -0 -0 -0 -0 -0 -0 -0 -0 -0 -0 -0 -0 -0 -0 -0 -0 -0 -0
-0 -0 -0 -0 -0 -0 -0 -0 -0 -0 -0 -0 -0 -0 -0 -0 -0 -0 -0 -0 -0 -0 -0 -0 -0 -0 -0 -0 -0 -0 -0 -0 -0 -0 -0 -0 -0 -0 -0 -0 -0 -0 -0
-0 -0 -0 -0 -0 -0 -0 -0 -0 -0 -0 -0 -0 -0 -0 -0 -0 -0 -0 -0 -0 -0 -0 -0 -0 -0 -0 -0 -0 -0 -0 -0 -0 -0 -0 -0 -0 -0 -0 -0 -0 -0 -0
-0 -0 -0 -0 -0 -0 -0 -0 -0 -0 -0 -0 -0 -0 -0 -0 -0 -0 -0 -0 -0 -0 -0 -0 -0 -0 -0 -0 -0 -0 -0 -0 -0 -0 -0 -0 -0 -0 -0 -0 -0 -0 -0
-0 -0 -0 -0 -0 -0 -0 -0 -0 -0 -0 -0 -0 -0 -0 -0 -0 -0 -0 -0 -0 -0 -0 -0 -0 -0 -0 -0 -0 -0 -0 -0 -0 -0 -0 -0 -0 -0 -0 -0 -0 -0 -0
-0 -0 -0 -0 -0 -0 -0 -0 -0 -0 -0 -0 -0 -0 -0 -0 -0 -0 -0 -0 -0 -0 -0 -0 -0 -0 -0 -0 -0 -0 -0 -0 -0 -0 -0 -0 -0 -0 -0 -0 -0 -0 -0
Wind_Speed
39 45 37 34 23 24 22 21 16 15 13 11 10 9 6 7 2 3 4 6 6 7 9 11 14 15 16 17 19 19 20 20 19 22 23 25 24 27 29 30 31 30 28
31 30 29 28 23 20 24 20 18 17 15 11 10 8 6 4 1 2 3 5 5 7 9 12 13 15 17 18 19 19 20 21 21 22 25 25 27 28 29 30 30 29 28
35 32 29 27 24 22 25 21 19 17 15 15 12 10 7 5 1 1 3 4 5 7 9 12 13 15 18 19 19 18 20 20 20 21 24 25 25 28 28 29 29 28 29
34 31 28 25 24 22 25 22 20 19 17 15 15 12 8 5 2 1 2 4 5 7 10 12 14 16 17 18 19 19 20 19 20 22 24 26 29 29 30 31 29 28 30
33 30 30 26 22 20 23 24 21 20 16 13 15 15 12 7 3 2 2 3 5 7 10 12 15 17 18 19 20 19 19 20 20 22 25 28 31 32 33 29 29 27 29
37 34 29 27 27 27 24 23 22 18 16 13 17 16 12 9 5 3 3 3 4 7 9 12 14 16 18 19 20 21 21 21 22 23 26 29 31 31 30 28 28 29 29
36 32 35 29 26 24 20 21 23 20 17 14 19 16 12 9 6 4 2 2 4 6 9 11 13 15 15 17 18 19 20 22 22 24 26 29 28 28 26 27 26 27 26
40 35 30 27 24 23 21 20 23 25 23 19 18 16 12 9 8 5 2 2 4 6 9 11 13 14 14 15 16 17 18 20 21 24 26 27 28 26 25 22 23 24 24
44 33 30 27 25 22 21 19 21 25 23 21 17 16 13 10 9 6 3 1 3 6 9 11 13 14 14 15 15 16 17 18 20 22 24 25 25 26 27 26 27 27 27
38 32 28 27 25 23 20 20 23 22 22 18 16 16 13 10 9 6 3 1 3 5 8 11 14 14 14 15 14 14 16 18 20 22 24 24 24 25 27 28 26 28 28
36 32 29 24 24 23 22 21 20 24 23 19 16 15 13 11 10 7 4 1 2 4 7 9 12 13 15 15 16 15 15 17 19 20 23 24 25 26 27 27 27 28 29
34 32 29 25 24 23 22 24 20 21 24 19 17 14 12 11 10 8 5 4 2 4 6 9 10 12 14 15 16 15 16 16 19 20 23 24 26 27 27 27 25 26 28
30 30 29 25 23 21 24 26 19 21 21 20 17 14 11 10 12 10 6 2 4 4 6 8 10 11 13 15 15 14 14 17 19 21 23 24 25 25 25 25 24 20 24
30 29 27 25 23 20 21 22 21 23 19 22 20 14 11 10 9 13 8 4 2 4 6 8 9 10 12 14 14 15 17 18 19 20 21 22 23 24 26 25 25 25 25
32 30 27 26 23 21 23 25 23 21 20 19 18 15 14 12 12 11 8 5 1 3 4 6 7 8 10 12 14 15 16 17 19 20 21 22 24 24 25 25 25 25 26
31 30 27 24 23 22 26 22 16 15 22 18 14 15 13 14 12 10 7 4 4 6 3 5 6 7 9 11 12 14 15 17 18 19 21 22 23 24 24 25 25 26 27
30 29 24 23 23 27 26 25 20 18 17 12 14 12 13 12 12 10 7 6 7 3 4 4 5 7 8 10 11 13 15 16 17 18 20 22 22 23 23 24 24 25 26
29 27 25 21 22 25 23 21 19 17 21 15 16 13 11 13 13 10 8 6 3 7 5 3 4 6 8 9 11 12 13 14 16 17 19 21 21 21 22 23 24 25 25
25 23 24 22 24 24 21 19 19 17 14 16 16 14 13 13 12 11 10 5 6 4 3 3 4 6 7 9 10 12 13 14 15 16 18 20 20 20 21 21 21 24 23
23 24 23 24 25 23 21 19 16 15 16 17 18 18 16 14 15 12 11 7 5 3 2 2 4 6 7 8 10 11 12 13 14 15 17 19 19 20 20 21 21 23 24
19 21 24 25 24 22 18 17 18 18 18 18 14 15 15 16 14 12 8 7 4 2 2 2 4 5 6 7 8 10 10 12 13 14 16 17 18 19 19 19 20 22 23
17 20 25 24 21 21 18 17 19 18 17 17 16 17 17 17 12 10 9 6 3 2 2 3 4 5 6 7 8 9 10 11 12 13 15 16 17 17 18 18 19 20 21
17 19 18 25 23 19 17 18 18 17 18 16 16 19 23 16 12 9 7 4 2 2 1 3 4 5 6 7 7 8 9 10 11 12 13 15 16 16 17 18 18 20 21
17 18 21 20 21 17 17 17 18 18 17 17 19 20 16 12 9 7 5 4 2 1 2 3 4 4 5 6 8 9 9 10 11 12 12 14 15 15 16 17 17 19 19
19 19 17 18 18 18 17 16 17 18 18 20 21 18 13 10 8 7 5 3 1 1 2 3 4 4 5 6 7 8 9 10 11 12 13 13 14 14 15 16 16 17 18
16 15 16 15 14 15 15 17 17 18 21 20 17 15 12 10 8 7 5 3 2 1 2 3 3 4 5 6 7 8 8 9 9 12 13 12 13 14 15 15 16 16 17
Wind_Direction
226 226 229 228 221 223 222 222 223 229 228 233 242 245 256 270 332 18 18 27 22 25 22 16 16 20 23 28 26 26 24 26 25 25 27 28 30 27 24 25 25 26 26
219 222 220 222 216 213 218 222 225 229 232 233 236 244 239 255 305 38 50 37 28 31 15 14 16 19 22 25 26 24 24 26 27 27 24 27 27 28 27 28 26 28 28
224 220 216 218 217 219 222 221 224 228 230 235 235 237 234 239 220 62 50 49 37 21 12 10 15 17 17 20 21 26 24 27 30 29 26 29 32 30 30 31 30 31 33
224 216 213 218 220 221 223 225 225 227 230 235 238 237 231 231 211 119 61 52 38 18 8 7 8 13 16 21 20 25 27 31 31 27 27 28 26 30 30 30 31 33 34
222 216 216 218 220 222 223 223 223 224 225 226 232 235 233 230 214 160 88 51 36 18 7 8 5 10 13 16 13 21 27 28 29 28 26 26 24 26 28 32 33 34 36
222 222 222 224 225 224 224 222 219 217 217 213 226 229 227 238 207 172 110 62 34 15 13 10 13 21 20 19 19 22 24 25 28 30 27 24 25 28 31 35 36 34 35
223 221 221 223 223 224 220 218 216 212 211 209 225 224 223 235 185 164 120 56 28 15 14 8 14 17 25 28 35 33 29 29 34 32 29 26 28 31 35 37 38 38 39
221 223 221 221 219 221 221 222 222 216 211 211 219 220 226 219 175 161 137 54 31 19 12 6 10 19 24 29 36 37 33 34 36 32 31 30 33 38 41 41 40 40 46
220 219 217 217 218 219 217 209 215 204 203 213 211 217 219 200 173 160 163 78 35 18 10 6 14 21 22 29 37 42 41 43 42 37 37 37 41 40 42 43 44 43 42
220 218 215 220 219 215 209 204 204 203 207 208 207 218 211 194 178 180 178 121 50 23 10 9 7 23 24 28 43 49 45 40 34 31 31 36 40 40 43 44 46 44 43
217 218 218 221 216 212 214 211 203 206 212 204 205 212 206 196 190 183 229 223 29 27 10 11 19 21 25 23 25 45 49 44 38 34 34 33 35 38 39 43 45 45 45
216 216 218 217 215 213 207 212 207 209 207 204 207 209 214 204 200 212 228 270 318 9 1 13 29 31 29 30 34 46 53 49 34 33 31 32 30 33 36 40 46 49 49
212 214 214 214 212 206 212 214 202 202 206 208 208 209 202 198 217 226 240 232 302 354 15 32 47 44 43 38 42 52 57 40 34 33 29 30 31 34 38 42 47 57 54
214 213 215 217 216 214 216 201 210 202 197 217 219 214 207 195 191 226 232 240 315 19 50 50 34 25 27 46 54 47 40 31 29 30 31 33 34 36 34 39 43 47 48
215 215 215 217 211 212 213 215 209 215 217 214 222 215 210 201 212 210 205 210 190 88 56 43 37 33 37 39 41 47 42 35 30 30 31 29 29 35 34 39 41 44 44
216 217 218 214 210 211 208 208 209 221 216 225 222 223 218 222 188 188 194 197 136 120 41 20 18 32 36 38 45 41 41 35 29 30 29 28 29 31 33 35 39 41 42
217 215 213 212 213 210 206 208 207 207 219 232 224 220 218 195 185 187 184 162 140 125 344 359 15 30 33 44 43 39 37 34 32 32 30 26 29 33 35 34 36 38 41
214 213 213 208 206 201 210 208 203 199 212 226 234 218 200 193 184 184 172 162 203 290 315 354 21 32 43 36 38 41 43 37 33 32 29 28 30 33 33 35 34 35 40
213 213 212 206 209 202 200 196 201 203 212 211 215 216 204 193 191 175 163 210 246 284 318 355 26 33 40 38 38 41 40 33 30 31 29 29 29 33 34 36 39 38 41
217 217 209 202 200 201 199 196 189 194 193 204 210 209 206 200 212 206 230 246 260 280 324 5 26 33 32 35 43 48 42 39 34 31 29 29 31 33 35 36 37 36 36
213 210 195 195 200 194 192 195 193 185 195 202 194 196 191 208 207 213 231 246 251 266 300 350 32 33 28 39 49 44 43 37 33 32 31 31 32 35 38 39 39 37 34
202 202 201 202 193 193 192 183 194 184 179 184 193 201 201 218 216 223 236 243 253 274 311 1 21 30 40 42 43 42 42 38 34 30 31 31 32 36 35 36 37 36 33
199 194 192 197 192 184 188 185 185 182 174 177 185 194 216 221 219 219 226 224 214 276 13 23 24 33 42 38 38 40 38 33 30 29 33 30 31 35 32 31 33 33 31
192 180 172 181 192 190 188 181 185 184 181 185 198 205 215 211 201 178 180 162 171 301 347 6 12 33 38 37 40 37 36 33 32 28 31 30 33 37 32 32 31 31 32
181 187 186 190 189 191 186 178 180 183 194 202 206 211 210 202 189 184 174 168 207 287 327 353 6 30 42 42 41 31 35 24 19 18 23 24 28 31 27 27 29 29 26
198 196 203 196 188 188 176 189 192 202 206 209 206 212 209 207 198 192 179 175 168 288 326 345 12 15 38 39 30 30 30 26 24 10 15 21 25 26 24 24 26 27 26